Bismarck, ND

3:11 PM CDT on March 26, 2017 (GMT -0500)
Bismarck Municipal

Weather History for KBIS - July, 2012

Change the Weather History Date:

Friday, July 27, 2012

  Actual Average Record
Temperature  
Mean Temperature 68 °F 72 °F  
Max Temperature 84 °F 86 °F 107 °F (1931)
Min Temperature 52 °F 58 °F 39 °F (2013)
Degree Days  
Heating Degree Days 0 0  
Month to date heating degree days 0 13  
Since 1 June heating degree days 33 106  
Since 1 July heating degree days 0 13  
Cooling Degree Days 3 7  
Month to date cooling degree days 293 172  
Year to date cooling degree days 402 272  
Since 1 June cooling degree days 397 255  
Growing Degree Days 18 (Base 50)    
Moisture  
Dew Point 54 °F    
Average Humidity 65    
Maximum Humidity 96    
Minimum Humidity 34    
Precipitation  
Precipitation 0.00 in 0.08 in 1.10 in (2004)
Month to date precipitation 2.63 2.55  
Year to date precipitation 9.78 11.19  
Snow  
Snow 0.00 in 0.00 in 0.00 in (2002)
Month to date snowfall 0.0 0.0  
Since 1 June snowfall 0.0 0.0  
Since 1 July snowfall 0.0 0.0  
Snow Depth 0.00 in    
Sea Level Pressure  
Sea Level Pressure 30.05 in    
Wind  
Wind Speed 5 mph (SSE)    
Max Wind Speed 14 mph    
Max Gust Speed 21 mph    
Visibility 10 miles    
Events      
T = Trace of Precipitation, MM = Missing Value Source: NWS Daily Summary

Daily Weather History Graph

Daily Weather History Graph

Search for Another Location

Airport or City:

Trip Planner

Search our weather history database for the weather conditions in past years. The results will help you decide how hot, cold, wet, or windy it might be!

Date:

Astronomy

Jul. 27, 2012 Rise Set
Actual Time 6:17 AM CDT 9:20 PM CDT
Civil Twilight 5:41 AM CDT 9:56 PM CDT
Nautical Twilight 4:55 AM CDT 10:42 PM CDT
Astronomical Twilight 3:58 AM CDT 11:38 PM CDT
Moon 4:21 PM CDT (7/27) 12:52 AM CDT (7/27)
Length of Visible Light 16h 14m
Length of Day
15h 02m
Waxing Gibbous, 65% of the Moon is Illuminated
Jul 27
Waxing Gibbous
Aug 1
Full
Aug 9
Last Quarter
Aug 17
New
Aug 24
First Quarter

Hourly Weather History & Observations

Time (CDT) Temp. Heat Index Dew Point Humidity Pressure Visibility Wind Dir Wind Speed Gust Speed Precip Events Conditions
12:52 AM 59.0 °F - 55.0 °F 87% 30.07 in 10.0 mi Calm Calm - N/A   Clear
1:52 AM 57.0 °F - 55.0 °F 93% 30.08 in 10.0 mi Calm Calm - N/A   Clear
2:52 AM 54.0 °F - 52.0 °F 93% 30.07 in 10.0 mi Calm Calm - N/A   Clear
3:52 AM 55.0 °F - 53.1 °F 93% 30.07 in 10.0 mi Calm Calm - N/A   Clear
4:52 AM 55.0 °F - 53.1 °F 93% 30.08 in 10.0 mi Calm Calm - N/A   Clear
5:52 AM 52.0 °F - 50.0 °F 93% 30.10 in 8.0 mi Calm Calm - N/A   Clear
6:52 AM 54.0 °F - 52.0 °F 93% 30.10 in 7.0 mi Calm Calm - N/A   Clear
7:52 AM 57.9 °F - 54.0 °F 87% 30.11 in 9.0 mi Calm Calm - N/A   Clear
8:52 AM 63.0 °F - 55.0 °F 75% 30.10 in 10.0 mi Calm Calm - N/A   Clear
9:52 AM 68.0 °F - 57.0 °F 68% 30.09 in 10.0 mi SSW 3.5 mph - N/A   Clear
10:52 AM 73.0 °F - 55.0 °F 53% 30.10 in 10.0 mi South 6.9 mph - N/A   Clear
11:52 AM 75.0 °F - 54.0 °F 48% 30.08 in 10.0 mi SW 9.2 mph - N/A   Partly Cloudy
12:52 PM 77.0 °F - 54.0 °F 45% 30.06 in 10.0 mi SW 8.1 mph - N/A   Clear
1:52 PM 79.0 °F - 54.0 °F 42% 30.04 in 10.0 mi Calm Calm - N/A   Partly Cloudy
2:52 PM 80.1 °F 80.0 °F 54.0 °F 40% 30.03 in 10.0 mi Calm Calm - N/A   Clear
3:52 PM 82.0 °F 81.4 °F 55.0 °F 39% 30.01 in 10.0 mi ESE 10.4 mph 16.1 mph N/A   Clear
4:52 PM 82.0 °F 81.2 °F 53.1 °F 37% 30.01 in 10.0 mi SE 5.8 mph - N/A   Clear
5:52 PM 82.0 °F - 52.0 °F 35% 30.01 in 10.0 mi SE 8.1 mph - N/A   Clear
6:52 PM 82.0 °F 81.3 °F 54.0 °F 38% 29.99 in 10.0 mi SE 10.4 mph - N/A   Clear
7:52 PM 80.1 °F 80.2 °F 55.9 °F 43% 29.99 in 10.0 mi SE 10.4 mph - N/A   Clear
8:52 PM 75.0 °F - 57.0 °F 53% 29.98 in 10.0 mi SE 8.1 mph - N/A   Clear
9:52 PM 71.1 °F - 57.0 °F 61% 29.99 in 10.0 mi SE 4.6 mph - N/A   Clear
10:52 PM 71.1 °F - 57.0 °F 61% 29.99 in 10.0 mi SE 9.2 mph - N/A   Clear
11:52 PM 72.0 °F - 57.0 °F 59% 29.99 in 10.0 mi SSE 10.4 mph - N/A   Clear